Tracking 19908 objects as of 19-Oct-2019
HD Live streaming from Space Station
objects crossing your sky now

COSMOS 249 DEB

Track COSMOS 249 DEB now!
10-day predictions


NORAD ID: 3912
Int'l Code: 1968-091BQ
Perigee: 789.1 km
Apogee: 1,987.7 km
Inclination: 62.3 °
Period: 113.4 minutes
Semi major axis: 7759 km
RCS: 0.0292 m2 (small)
Launch date: October 20, 1968
Source: Commonwealth of Independent States (former USSR) (CIS)
Launch site: TYURATAM MISSILE AND SPACE COMPLEX (TTMTR)

Note: This is SATELLITE DEBRIS
aabbcc
Your satellite tracking list
Your tracking list is empty




NASA's NSSDC Master Catalog

Two Line Element Set (TLE):
1  3912U 68091BQ  19291.35749630  .00000123  00000-0  30279-3 0  9998
2  3912  62.2592 283.7537 0772337 277.3909  74.0022 12.70160737338557
Source of the keplerian elements: AFSPC